Accueil
METAR-TAF:

METAR-TAF

Aéroports :

Melun, France

Aérodrome de Melun-Villaroche

latitude: 48-37N, longitude: 002-41E, altitude: 95 m

Observation

Le bulletin a été fait il y a 32 minutes, à 10:00 UTC
Vent 8 kt de nord/nord-est, variant entre nord/nord-ouest et est/nord-est
Température 1°C
Humidité 69%
Pression 1018 hPa
Visibilité: 8000 m

METAR: LFPM 221000Z AUTO 02008KT 340V060 8000 NSC 01/M04 Q1018

Heure: 11:32 (10:32 UTC)


TAF: absent

Observations et prévisions météorologiques de plus de 4000 aéroports (messages METAR et TAF).

Les stations disponibles sont représentées par des disques jaunes et rouges sur la carte.

Passer la souris dessus pour voir le nom de la station.

Cliquer dessus pour voir les observations et prévisions météorologiques.

Pour changer de carte: cliquez sur les boutons verts avec une croix noire pour zoomer, sur le bouton vert avec un tiret pour effectuer un zoom arrière, ou sur les flèches vertes pour les cartes adjacentes.


METAR-TAF: